Flag for U.S.A. Weather past 2 weeks in Springfield, Massachusetts, U.S.A.

Now
75 °F

Sunny.


Feels Like: 78 °F
Forecast: 53 / 76 °F
Wind: 3 mph from North

Location: Barnes Municipal Airport

Current Time: Aug 29, 2014 at 4:12:29 PM

Latest Report: Aug 29, 2014 at 2:53 PM


Visibility: 10 mi

Pressure: 30.18 "Hg

Humidity: 45%

Dew point: 52 °F

Location of SpringfieldLocation

Historic Weather in Springfield — Graph

°F

Springfield temperature yesterday

Maximum temperature yesterday: 79 °F (at 12:53 PM)
Minimum temperature yesterday: 60 °F (at 11:53 PM)
Average temperature yesterday: 70 °F

Past Weeks' High & Low Weather Summary

 TemperatureHumidityPressure
High89 °F (Aug 27, 4:53 PM)97% (Aug 24, 4:01 AM)30.19 "Hg (Aug 24, 4:01 AM)
Low49 °F (Aug 19, 5:00 AM)34% (Aug 26, 4:53 PM)29.79 "Hg (Aug 17, 3:53 PM)
Average68 °F73%29.99 "Hg
* Reported Aug 14 2:53 PM — Aug 29 2:53 PM, Springfield, Weather by CustomWeather, © 2014

Note: Actual official high and low records may vary slightly from our data, if they occured in-between our weather recording intervals... More about our weather records

Advertising

Springfield weather history for previous 24 hours

 ConditionsComfort  
Time TempWeatherWind HumidityBarometerVisibility
2:53 PM
Aug 29
75 °FSunny.3 mph45%30.18 "Hg10 mi
1:53 PM76 °FPassing clouds.No wind43%30.18 "Hg10 mi
12:53 PM73 °FSunny.N/A44%30.19 "Hg10 mi
11:53 AM72 °FSunny.No wind49%30.18 "Hg10 mi
10:53 AM71 °FSunny.9 mph51%30.19 "Hg10 mi
9:53 AM69 °FSunny.7 mph57%30.19 "Hg10 mi
8:53 AM63 °FSunny.No wind68%30.16 "Hg10 mi
7:53 AM59 °FSunny.No wind81%30.16 "Hg10 mi
6:53 AM53 °FClear.3 mph86%30.13 "Hg10 mi
5:53 AM51 °FClear.No wind89%30.11 "Hg10 mi
4:53 AM52 °FClear.No wind93%30.09 "Hg10 mi
3:53 AM53 °FClear.No wind89%30.09 "Hg10 mi
2:53 AM54 °FClear.3 mph90%30.07 "Hg10 mi
1:53 AM55 °FClear.No wind90%30.06 "Hg10 mi
12:53 AM57 °FClear.No wind87%30.06 "Hg10 mi
11:53 PM
Aug 28
60 °FClear.No wind78%30.04 "Hg10 mi
10:53 PM64 °FPassing clouds.5 mph68%30.01 "Hg10 mi
9:53 PM67 °FPartly cloudy.7 mph61%30.00 "Hg10 mi
8:53 PM67 °FPassing clouds.7 mph59%29.98 "Hg10 mi
7:53 PM69 °FOvercast.8 mph57%29.94 "Hg10 mi
6:53 PM71 °FScattered clouds.6 mph53%29.92 "Hg10 mi
5:53 PM73 °FScattered clouds.9 mph48%29.89 "Hg10 mi
4:53 PM75 °FPartly sunny.13 mph50%29.87 "Hg10 mi
Weather by CustomWeather, © 2014

See weather overviewHow to use our weather pages